Terminal Aerodrome Forecast
Issued by NWS North Platte, NE

Home | Current Version | Previous Version | Text Only | Print | Product List | Glossary On
Versions: 1 2 3 4 5 6 7 8 9 10 11 12 13 14 15 16 17 18 19 20 21 22
000
FTUS43 KLBF 010600 AAA
TAFVTN
TAF AMD
KVTN 010603Z 0106/0206 36017G25KT 3/4SM -SN BR OVC014
     FM010800 35017G25KT 2SM -SN BR OVC012
     FM010900 35016G25KT 4SM -SN BR OVC012
     FM011100 35017G27KT 6SM -SN BR OVC015
     FM011800 33015G22KT P6SM BKN020
     FM012200 33012KT P6SM BKN030
     FM020000 VRB04KT P6SM SKC=

USA.gov is the U.S. government's official web portal to all federal, state and local government web resources and services.